Year,Month,Day,Hour,Minute,Value (Times are PST for windgust in km/hr)
2015,09,20,00,01,4.80
2015,09,20,00,02,3.20
2015,09,20,00,03,4.80
2015,09,20,00,04,1.60
2015,09,20,00,06,4.80
2015,09,20,00,07,3.20
2015,09,20,00,08,3.20
2015,09,20,00,09,4.80
2015,09,20,00,10,4.80
2015,09,20,00,11,8.10
2015,09,20,00,13,4.80
2015,09,20,00,14,6.40
2015,09,20,00,15,6.40
2015,09,20,00,16,3.20
2015,09,20,00,17,3.20
2015,09,20,00,18,1.60
2015,09,20,00,19,3.20
2015,09,20,00,20,3.20
2015,09,20,00,21,9.60
2015,09,20,00,22,11.30
2015,09,20,00,23,11.30
2015,09,20,00,24,11.30
2015,09,20,00,25,14.50
2015,09,20,00,26,6.40
2015,09,20,00,27,9.60
2015,09,20,00,28,16.10
2015,09,20,00,29,14.50
2015,09,20,00,30,8.10
2015,09,20,00,31,8.10
2015,09,20,00,32,16.10
2015,09,20,00,33,17.70
2015,09,20,00,34,11.30
2015,09,20,00,35,12.90
2015,09,20,00,36,11.30
2015,09,20,00,37,9.60
2015,09,20,00,38,9.60
2015,09,20,00,39,4.80
2015,09,20,00,40,4.80
2015,09,20,00,41,4.80
2015,09,20,00,42,6.40
2015,09,20,00,43,9.60
2015,09,20,00,44,6.40
2015,09,20,00,45,11.30
2015,09,20,00,46,16.10
2015,09,20,00,47,11.30
2015,09,20,00,48,9.60
2015,09,20,00,49,11.30
2015,09,20,00,50,16.10
2015,09,20,00,51,17.70
2015,09,20,00,52,14.50
2015,09,20,00,53,16.10
2015,09,20,00,54,14.50
2015,09,20,00,55,19.30
2015,09,20,00,56,17.70
2015,09,20,00,57,16.10
2015,09,20,00,58,19.30
2015,09,20,00,59,12.90
2015,09,20,01,00,12.90
2015,09,20,01,01,17.70
2015,09,20,01,02,17.70
2015,09,20,01,03,9.60
2015,09,20,01,04,16.10
2015,09,20,01,05,11.30
2015,09,20,01,06,14.50
2015,09,20,01,07,11.30
2015,09,20,01,08,16.10
2015,09,20,01,09,12.90
2015,09,20,01,10,9.60
2015,09,20,01,11,11.30
2015,09,20,01,12,9.60
2015,09,20,01,13,8.10
2015,09,20,01,14,11.30
2015,09,20,01,15,16.10
2015,09,20,01,16,6.40
2015,09,20,01,17,9.60
2015,09,20,01,18,9.60
2015,09,20,01,19,11.30
2015,09,20,01,20,9.60
2015,09,20,01,21,8.10
2015,09,20,01,22,14.50
2015,09,20,01,23,14.50
2015,09,20,01,24,14.50
2015,09,20,01,25,14.50
2015,09,20,01,26,9.60
2015,09,20,01,27,8.10
2015,09,20,01,28,8.10
2015,09,20,01,29,9.60
2015,09,20,01,30,11.30
2015,09,20,01,31,16.10
2015,09,20,01,32,14.50
2015,09,20,01,33,9.60
2015,09,20,01,34,16.10
2015,09,20,01,35,11.30
2015,09,20,01,36,11.30
2015,09,20,01,37,12.90
2015,09,20,01,38,11.30
2015,09,20,01,39,11.30
2015,09,20,01,40,16.10
2015,09,20,01,41,9.60
2015,09,20,01,42,14.50
2015,09,20,01,43,14.50
2015,09,20,01,44,12.90
2015,09,20,01,45,16.10
2015,09,20,01,46,16.10
2015,09,20,01,47,11.30
2015,09,20,01,48,14.50
2015,09,20,01,49,12.90
2015,09,20,01,50,16.10
2015,09,20,01,51,16.10
2015,09,20,01,52,11.30
2015,09,20,01,53,14.50
2015,09,20,01,54,12.90
2015,09,20,01,55,8.10
2015,09,20,01,56,8.10
2015,09,20,01,57,11.30
2015,09,20,01,58,11.30
2015,09,20,01,59,14.50
2015,09,20,02,00,17.70
2015,09,20,02,01,14.50
2015,09,20,02,02,14.50
2015,09,20,02,03,14.50
2015,09,20,02,04,14.50
2015,09,20,02,05,14.50
2015,09,20,02,06,11.30
2015,09,20,02,07,9.60
2015,09,20,02,08,12.90
2015,09,20,02,09,20.90
2015,09,20,02,10,16.10
2015,09,20,02,11,16.10
2015,09,20,02,12,11.30
2015,09,20,02,13,12.90
2015,09,20,02,14,8.10
2015,09,20,02,15,8.10
2015,09,20,02,16,9.60
2015,09,20,02,17,8.10
2015,09,20,02,18,11.30
2015,09,20,02,19,12.90
2015,09,20,02,20,11.30
2015,09,20,02,21,14.50
2015,09,20,02,22,16.10
2015,09,20,02,23,14.50
2015,09,20,02,24,11.30
2015,09,20,02,25,16.10
2015,09,20,02,26,11.30
2015,09,20,02,27,11.30
2015,09,20,02,28,9.60
2015,09,20,02,29,9.60
2015,09,20,02,30,9.60
2015,09,20,02,31,11.30
2015,09,20,02,32,8.10
2015,09,20,02,33,11.30
2015,09,20,02,34,8.10
2015,09,20,02,35,8.10
2015,09,20,02,36,8.10
2015,09,20,02,37,8.10
2015,09,20,02,38,8.10
2015,09,20,02,39,14.50
2015,09,20,02,40,11.30
2015,09,20,02,41,11.30
2015,09,20,02,42,16.10
2015,09,20,02,43,12.90
2015,09,20,02,44,12.90
2015,09,20,02,45,14.50
2015,09,20,02,46,14.50
2015,09,20,02,47,14.50
2015,09,20,02,48,11.30
2015,09,20,02,49,11.30
2015,09,20,02,50,14.50
2015,09,20,02,51,9.60
2015,09,20,02,52,9.60
2015,09,20,02,53,19.30
2015,09,20,02,54,14.50
2015,09,20,02,55,16.10
2015,09,20,02,56,16.10
2015,09,20,02,57,20.90
2015,09,20,02,58,16.10
2015,09,20,02,59,14.50
2015,09,20,03,00,16.10
2015,09,20,03,01,16.10
2015,09,20,03,02,16.10
2015,09,20,03,03,11.30
2015,09,20,03,04,11.30
2015,09,20,03,05,17.70
2015,09,20,03,06,19.30
2015,09,20,03,07,14.50
2015,09,20,03,08,17.70
2015,09,20,03,09,11.30
2015,09,20,03,10,16.10
2015,09,20,03,11,16.10
2015,09,20,03,12,19.30
2015,09,20,03,13,16.10
2015,09,20,03,14,11.30
2015,09,20,03,15,20.90
2015,09,20,03,16,25.70
2015,09,20,03,17,24.20
2015,09,20,03,18,20.90
2015,09,20,03,19,19.30
2015,09,20,03,20,19.30
2015,09,20,03,21,20.90
2015,09,20,03,22,17.70
2015,09,20,03,23,14.50
2015,09,20,03,24,20.90
2015,09,20,03,25,24.20
2015,09,20,03,26,22.50
2015,09,20,03,27,20.90
2015,09,20,03,28,20.90
2015,09,20,03,29,22.50
2015,09,20,03,30,24.20
2015,09,20,03,31,24.20
2015,09,20,03,32,17.70
2015,09,20,03,33,22.50
2015,09,20,03,34,22.50
2015,09,20,03,35,19.30
2015,09,20,03,36,19.30
2015,09,20,03,37,20.90
2015,09,20,03,38,17.70
2015,09,20,03,39,20.90
2015,09,20,03,40,20.90
2015,09,20,03,41,22.50
2015,09,20,03,42,20.90
2015,09,20,03,43,20.90
2015,09,20,03,44,19.30
2015,09,20,03,45,19.30
2015,09,20,03,46,14.50
2015,09,20,03,47,16.10
2015,09,20,03,48,20.90
2015,09,20,03,49,11.30
2015,09,20,03,50,17.70
2015,09,20,03,51,25.70
2015,09,20,03,52,22.50
2015,09,20,03,53,20.90
2015,09,20,03,54,11.30
2015,09,20,03,55,17.70
2015,09,20,03,56,19.30
2015,09,20,03,57,17.70
2015,09,20,03,58,16.10
2015,09,20,03,59,16.10
2015,09,20,04,00,16.10
2015,09,20,04,01,17.70
2015,09,20,04,02,11.30
2015,09,20,04,03,9.60
2015,09,20,04,04,9.60
2015,09,20,04,05,11.30
2015,09,20,04,06,16.10
2015,09,20,04,07,11.30
2015,09,20,04,08,9.60
2015,09,20,04,09,8.10
2015,09,20,04,10,17.70
2015,09,20,04,11,16.10
2015,09,20,04,12,11.30
2015,09,20,04,13,20.90
2015,09,20,04,14,9.60
2015,09,20,04,15,9.60
2015,09,20,04,16,9.60
2015,09,20,04,17,9.60
2015,09,20,04,18,11.30
2015,09,20,04,19,8.10
2015,09,20,04,20,9.60
2015,09,20,04,21,14.50
2015,09,20,04,22,8.10
2015,09,20,04,23,9.60
2015,09,20,04,24,8.10
2015,09,20,04,25,6.40
2015,09,20,04,26,11.30
2015,09,20,04,27,8.10
2015,09,20,04,28,8.10
2015,09,20,04,29,6.40
2015,09,20,04,30,6.40
2015,09,20,04,31,12.90
2015,09,20,04,32,11.30
2015,09,20,04,33,9.60
2015,09,20,04,34,8.10
2015,09,20,04,35,9.60
2015,09,20,04,36,6.40
2015,09,20,04,37,9.60
2015,09,20,04,38,9.60
2015,09,20,04,39,8.10
2015,09,20,04,40,8.10
2015,09,20,04,41,19.30
2015,09,20,04,42,9.60
2015,09,20,04,43,9.60
2015,09,20,04,44,20.90
2015,09,20,04,45,11.30
2015,09,20,04,46,11.30
2015,09,20,04,47,11.30
2015,09,20,04,48,4.80
2015,09,20,04,49,8.10
2015,09,20,04,50,6.40
2015,09,20,04,51,8.10
2015,09,20,04,52,8.10
2015,09,20,04,53,14.50
2015,09,20,04,54,8.10
2015,09,20,04,55,6.40
2015,09,20,04,56,6.40
2015,09,20,04,57,11.30
2015,09,20,04,58,8.10
2015,09,20,04,59,11.30
2015,09,20,05,00,11.30
2015,09,20,05,01,14.50
2015,09,20,05,02,8.10
2015,09,20,05,03,8.10
2015,09,20,05,04,16.10
2015,09,20,05,05,11.30
2015,09,20,05,06,11.30
2015,09,20,05,07,14.50
2015,09,20,05,08,14.50
2015,09,20,05,09,11.30
2015,09,20,05,10,11.30
2015,09,20,05,11,9.60
2015,09,20,05,12,6.40
2015,09,20,05,13,4.80
2015,09,20,05,14,6.40
2015,09,20,05,15,9.60
2015,09,20,05,16,9.60
2015,09,20,05,17,12.90
2015,09,20,05,18,11.30
2015,09,20,05,19,6.40
2015,09,20,05,20,11.30
2015,09,20,05,21,8.10
2015,09,20,05,22,6.40
2015,09,20,05,23,6.40
2015,09,20,05,24,4.80
2015,09,20,05,25,8.10
2015,09,20,05,26,8.10
2015,09,20,05,27,8.10
2015,09,20,05,28,11.30
2015,09,20,05,29,11.30
2015,09,20,05,30,14.50
2015,09,20,05,31,17.70
2015,09,20,05,32,16.10
2015,09,20,05,33,14.50
2015,09,20,05,34,9.60
2015,09,20,05,35,8.10
2015,09,20,05,36,16.10
2015,09,20,05,37,6.40
2015,09,20,05,38,16.10
2015,09,20,05,39,14.50
2015,09,20,05,40,14.50
2015,09,20,05,41,9.60
2015,09,20,05,42,11.30
2015,09,20,05,43,12.90
2015,09,20,05,44,11.30
2015,09,20,05,45,16.10
2015,09,20,05,46,17.70
2015,09,20,05,47,16.10
2015,09,20,05,48,14.50
2015,09,20,05,49,16.10
2015,09,20,05,50,17.70
2015,09,20,05,51,16.10
2015,09,20,05,52,14.50
2015,09,20,05,53,17.70
2015,09,20,05,54,17.70
2015,09,20,05,55,16.10
2015,09,20,05,56,11.30
2015,09,20,05,57,17.70
2015,09,20,05,58,17.70
2015,09,20,05,59,14.50
2015,09,20,06,00,9.60
2015,09,20,06,01,16.10
2015,09,20,06,02,14.50
2015,09,20,06,03,14.50
2015,09,20,06,04,16.10
2015,09,20,06,05,19.30
2015,09,20,06,06,19.30
2015,09,20,06,07,20.90
2015,09,20,06,08,11.30
2015,09,20,06,09,14.50
2015,09,20,06,10,11.30
2015,09,20,06,11,14.50
2015,09,20,06,12,14.50
2015,09,20,06,13,14.50
2015,09,20,06,14,14.50
2015,09,20,06,15,17.70
2015,09,20,06,16,20.90
2015,09,20,06,17,16.10
2015,09,20,06,18,17.70
2015,09,20,06,19,19.30
2015,09,20,06,20,11.30
2015,09,20,06,21,16.10
2015,09,20,06,22,20.90
2015,09,20,06,23,17.70
2015,09,20,06,24,19.30
2015,09,20,06,25,17.70
2015,09,20,06,26,16.10
2015,09,20,06,27,11.30
2015,09,20,06,28,14.50
2015,09,20,06,29,8.10
2015,09,20,06,30,12.90
2015,09,20,06,31,17.70
2015,09,20,06,32,24.20
2015,09,20,06,33,24.20
2015,09,20,06,34,20.90
2015,09,20,06,35,16.10
2015,09,20,06,36,9.60
2015,09,20,06,37,11.30
2015,09,20,06,38,19.30
2015,09,20,06,39,9.60
2015,09,20,06,40,16.10
2015,09,20,06,41,24.20
2015,09,20,06,42,20.90
2015,09,20,06,43,20.90
2015,09,20,06,44,19.30
2015,09,20,06,45,19.30
2015,09,20,06,46,11.30
2015,09,20,06,47,14.50
2015,09,20,06,48,6.40
2015,09,20,06,49,9.60
2015,09,20,06,50,19.30
2015,09,20,06,51,20.90
2015,09,20,06,52,19.30
2015,09,20,06,53,11.30
2015,09,20,06,54,11.30
2015,09,20,06,55,14.50
2015,09,20,06,56,14.50
2015,09,20,06,57,14.50
2015,09,20,06,58,12.90
2015,09,20,06,59,20.90
2015,09,20,07,00,22.50
2015,09,20,07,01,14.50
2015,09,20,07,02,12.90
2015,09,20,07,03,14.50
2015,09,20,07,04,16.10
2015,09,20,07,05,17.70
2015,09,20,07,06,19.30
2015,09,20,07,07,16.10
2015,09,20,07,08,9.60
2015,09,20,07,09,16.10
2015,09,20,07,10,16.10
2015,09,20,07,11,16.10
2015,09,20,07,12,20.90
2015,09,20,07,13,17.70
2015,09,20,07,14,8.10
2015,09,20,07,15,8.10
2015,09,20,07,16,11.30
2015,09,20,07,17,20.90
2015,09,20,07,18,22.50
2015,09,20,07,19,27.40
2015,09,20,07,20,24.20
2015,09,20,07,21,17.70
2015,09,20,07,22,22.50
2015,09,20,07,23,17.70
2015,09,20,07,24,22.50
2015,09,20,07,25,9.60
2015,09,20,07,26,11.30
2015,09,20,07,27,17.70
2015,09,20,07,28,16.10
2015,09,20,07,29,17.70
2015,09,20,07,30,16.10
2015,09,20,07,31,14.50
2015,09,20,07,32,12.90
2015,09,20,07,33,17.70
2015,09,20,07,34,17.70
2015,09,20,07,35,11.30
2015,09,20,07,36,16.10
2015,09,20,07,37,22.50
2015,09,20,07,38,16.10
2015,09,20,07,39,9.60
2015,09,20,07,40,6.40
2015,09,20,07,41,11.30
2015,09,20,07,42,16.10
2015,09,20,07,43,12.90
2015,09,20,07,44,14.50
2015,09,20,07,45,17.70
2015,09,20,07,46,17.70
2015,09,20,07,47,16.10
2015,09,20,07,48,22.50
2015,09,20,07,49,16.10
2015,09,20,07,50,14.50
2015,09,20,07,51,11.30
2015,09,20,07,52,20.90
2015,09,20,07,53,19.30
2015,09,20,07,54,19.30
2015,09,20,07,55,22.50
2015,09,20,07,56,22.50
2015,09,20,07,57,17.70
2015,09,20,07,58,17.70
2015,09,20,07,59,9.60
2015,09,20,08,00,16.10
2015,09,20,08,01,16.10
2015,09,20,08,02,17.70
2015,09,20,08,03,11.30
2015,09,20,08,04,16.10
2015,09,20,08,05,11.30
2015,09,20,08,06,22.50
2015,09,20,08,07,17.70
2015,09,20,08,08,16.10
2015,09,20,08,09,19.30
2015,09,20,08,10,24.20
2015,09,20,08,11,16.10
2015,09,20,08,12,9.60
2015,09,20,08,13,14.50
2015,09,20,08,14,17.70
2015,09,20,08,15,22.50
2015,09,20,08,16,20.90
2015,09,20,08,17,20.90
2015,09,20,08,18,20.90
2015,09,20,08,19,20.90
2015,09,20,08,20,24.20
2015,09,20,08,21,12.90
2015,09,20,08,22,14.50
2015,09,20,08,23,19.30
2015,09,20,08,24,17.70
2015,09,20,08,25,22.50
2015,09,20,08,26,25.70
2015,09,20,08,27,16.10
2015,09,20,08,28,19.30
2015,09,20,08,29,16.10
2015,09,20,08,30,17.70
2015,09,20,08,31,19.30
2015,09,20,08,32,24.20
2015,09,20,08,33,29.00
2015,09,20,08,34,27.40
2015,09,20,08,35,19.30
2015,09,20,08,36,30.60
2015,09,20,08,37,22.50
2015,09,20,08,38,25.70
2015,09,20,08,39,22.50
2015,09,20,08,40,22.50
2015,09,20,08,41,9.60
2015,09,20,08,42,24.20
2015,09,20,08,43,24.20
2015,09,20,08,44,20.90
2015,09,20,08,45,16.10
2015,09,20,08,46,17.70
2015,09,20,08,47,19.30
2015,09,20,08,48,17.70
2015,09,20,08,49,6.40
2015,09,20,08,50,14.50
2015,09,20,08,51,9.60
2015,09,20,08,52,8.10
2015,09,20,08,53,8.10
2015,09,20,08,54,8.10
2015,09,20,08,55,16.10
2015,09,20,08,56,17.70
2015,09,20,08,57,19.30
2015,09,20,08,58,11.30
2015,09,20,08,59,25.70
2015,09,20,09,00,17.70
2015,09,20,09,01,16.10
2015,09,20,09,02,11.30
2015,09,20,09,03,9.60
2015,09,20,09,04,9.60
2015,09,20,09,05,9.60
2015,09,20,09,06,14.50
2015,09,20,09,07,14.50
2015,09,20,09,08,11.30
2015,09,20,09,09,8.10
2015,09,20,09,10,14.50
2015,09,20,09,11,11.30
2015,09,20,09,12,11.30
2015,09,20,09,13,11.30
2015,09,20,09,14,11.30
2015,09,20,09,15,17.70
2015,09,20,09,16,17.70
2015,09,20,09,17,16.10
2015,09,20,09,18,8.10
2015,09,20,09,19,12.90
2015,09,20,09,20,11.30
2015,09,20,09,21,11.30
2015,09,20,09,22,11.30
2015,09,20,09,23,17.70
2015,09,20,09,24,14.50
2015,09,20,09,25,17.70
2015,09,20,09,26,17.70
2015,09,20,09,27,22.50
2015,09,20,09,28,9.60
2015,09,20,09,29,11.30
2015,09,20,09,30,11.30
2015,09,20,09,31,16.10
2015,09,20,09,32,14.50
2015,09,20,09,33,17.70
2015,09,20,09,34,19.30
2015,09,20,09,35,24.20
2015,09,20,09,36,12.90
2015,09,20,09,37,19.30
2015,09,20,09,38,16.10
2015,09,20,09,39,16.10
2015,09,20,09,40,16.10
2015,09,20,09,41,16.10
2015,09,20,09,42,8.10
2015,09,20,09,43,14.50
2015,09,20,09,44,8.10
2015,09,20,09,45,9.60
2015,09,20,09,46,9.60
2015,09,20,09,47,11.30
2015,09,20,09,48,11.30
2015,09,20,09,49,9.60
2015,09,20,09,50,12.90
2015,09,20,09,51,12.90
2015,09,20,09,52,9.60
2015,09,20,09,53,16.10
2015,09,20,09,54,20.90
2015,09,20,09,55,17.70
2015,09,20,09,56,11.30
2015,09,20,09,57,12.90
2015,09,20,09,58,16.10
2015,09,20,09,59,17.70
2015,09,20,10,00,8.10
2015,09,20,10,01,6.40
2015,09,20,10,02,9.60
2015,09,20,10,03,8.10
2015,09,20,10,04,11.30
2015,09,20,10,05,16.10
2015,09,20,10,06,11.30
2015,09,20,10,07,9.60
2015,09,20,10,08,6.40
2015,09,20,10,09,11.30
2015,09,20,10,10,9.60
2015,09,20,10,11,8.10
2015,09,20,10,12,6.40
2015,09,20,10,13,14.50
2015,09,20,10,14,8.10
2015,09,20,10,15,11.30
2015,09,20,10,16,14.50
2015,09,20,10,17,9.60
2015,09,20,10,18,9.60
2015,09,20,10,19,17.70
2015,09,20,10,20,9.60
2015,09,20,10,21,9.60
2015,09,20,10,22,11.30
2015,09,20,10,23,11.30
2015,09,20,10,24,14.50
2015,09,20,10,25,11.30
2015,09,20,10,26,8.10
2015,09,20,10,27,9.60
2015,09,20,10,28,9.60
2015,09,20,10,29,11.30
2015,09,20,10,30,9.60
2015,09,20,10,31,8.10
2015,09,20,10,32,8.10
2015,09,20,10,33,16.10
2015,09,20,10,34,16.10
2015,09,20,10,35,12.90
2015,09,20,10,36,9.60
2015,09,20,10,37,14.50
2015,09,20,10,38,14.50
2015,09,20,10,39,20.90
2015,09,20,10,40,11.30
2015,09,20,10,41,4.80
2015,09,20,10,42,11.30
2015,09,20,10,43,8.10
2015,09,20,10,44,8.10
2015,09,20,10,45,14.50
2015,09,20,10,46,14.50
2015,09,20,10,47,16.10
2015,09,20,10,48,11.30
2015,09,20,10,49,16.10
2015,09,20,10,50,12.90
2015,09,20,10,51,16.10
2015,09,20,10,52,19.30
2015,09,20,10,53,16.10
2015,09,20,10,54,8.10
2015,09,20,10,55,11.30
2015,09,20,10,56,11.30
2015,09,20,10,57,16.10
2015,09,20,10,58,14.50
2015,09,20,10,59,16.10
2015,09,20,11,00,24.20
2015,09,20,11,01,16.10
2015,09,20,11,02,17.70
2015,09,20,11,03,16.10
2015,09,20,11,04,9.60
2015,09,20,11,05,16.10
2015,09,20,11,06,17.70
2015,09,20,11,07,17.70
2015,09,20,11,08,24.20
2015,09,20,11,09,16.10
2015,09,20,11,10,22.50
2015,09,20,11,11,16.10
2015,09,20,11,12,17.70
2015,09,20,11,13,20.90
2015,09,20,11,14,16.10
2015,09,20,11,15,17.70
2015,09,20,11,16,16.10
2015,09,20,11,17,43.50
2015,09,20,11,18,22.50
2015,09,20,11,19,24.20
2015,09,20,11,20,32.20
2015,09,20,11,21,27.40
2015,09,20,11,22,20.90
2015,09,20,11,23,30.60
2015,09,20,11,24,35.40
2015,09,20,11,25,35.40
2015,09,20,11,26,22.50
2015,09,20,11,27,27.40
2015,09,20,11,28,19.30
2015,09,20,11,29,30.60
2015,09,20,11,30,29.00
2015,09,20,11,31,16.10
2015,09,20,11,32,33.80
2015,09,20,11,33,32.20
2015,09,20,11,34,25.70
2015,09,20,11,35,20.90
2015,09,20,11,36,38.60
2015,09,20,11,37,22.50
2015,09,20,11,38,16.10
2015,09,20,11,39,22.50
2015,09,20,11,40,20.90
2015,09,20,11,41,29.00
2015,09,20,11,42,25.70
2015,09,20,11,43,24.20
2015,09,20,11,44,24.20
2015,09,20,11,45,20.90
2015,09,20,11,46,17.70
2015,09,20,11,47,16.10
2015,09,20,11,48,19.30
2015,09,20,11,49,17.70
2015,09,20,11,50,19.30
2015,09,20,11,51,45.10
2015,09,20,11,52,37.00
2015,09,20,11,53,19.30
2015,09,20,11,54,9.60
2015,09,20,11,55,9.60
2015,09,20,11,56,25.70
2015,09,20,11,57,20.90
2015,09,20,11,58,17.70
2015,09,20,11,59,24.20
2015,09,20,12,00,19.30
2015,09,20,12,01,16.10
2015,09,20,12,02,22.50
2015,09,20,12,03,16.10
2015,09,20,12,04,25.70
2015,09,20,12,05,19.30
2015,09,20,12,06,11.30
2015,09,20,12,07,19.30
2015,09,20,12,08,29.00
2015,09,20,12,09,17.70
2015,09,20,12,10,20.90
2015,09,20,12,11,22.50
2015,09,20,12,12,11.30
2015,09,20,12,13,29.00
2015,09,20,12,14,22.50
2015,09,20,12,15,27.40
2015,09,20,12,16,20.90
2015,09,20,12,17,9.60
2015,09,20,12,18,6.40
2015,09,20,12,19,20.90
2015,09,20,12,20,16.10
2015,09,20,12,21,27.40
2015,09,20,12,22,24.20
2015,09,20,12,23,20.90
2015,09,20,12,24,12.90
2015,09,20,12,25,20.90
2015,09,20,12,26,14.50
2015,09,20,12,27,16.10
2015,09,20,12,28,8.10
2015,09,20,12,29,16.10
2015,09,20,12,30,12.90
2015,09,20,12,31,16.10
2015,09,20,12,32,17.70
2015,09,20,12,33,17.70
2015,09,20,12,34,17.70
2015,09,20,12,35,20.90
2015,09,20,12,36,14.50
2015,09,20,12,37,14.50
2015,09,20,12,38,12.90
2015,09,20,12,39,8.10
2015,09,20,12,40,16.10
2015,09,20,12,41,24.20
2015,09,20,12,42,22.50
2015,09,20,12,43,20.90
2015,09,20,12,44,20.90
2015,09,20,12,45,20.90
2015,09,20,12,46,20.90
2015,09,20,12,47,16.10
2015,09,20,12,48,25.70
2015,09,20,12,49,17.70
2015,09,20,12,50,20.90
2015,09,20,12,51,24.20
2015,09,20,12,52,19.30
2015,09,20,12,53,17.70
2015,09,20,12,54,17.70
2015,09,20,12,55,19.30
2015,09,20,12,56,17.70
2015,09,20,12,57,19.30
2015,09,20,12,58,24.20
2015,09,20,12,59,24.20
2015,09,20,13,00,24.20
2015,09,20,13,01,29.00
2015,09,20,13,02,20.90
2015,09,20,13,03,20.90
2015,09,20,13,04,29.00
2015,09,20,13,05,30.60
2015,09,20,13,06,27.40
2015,09,20,13,07,29.00
2015,09,20,13,08,30.60
2015,09,20,13,09,29.00
2015,09,20,13,10,24.20
2015,09,20,13,11,25.70
2015,09,20,13,12,33.80
2015,09,20,13,13,25.70
2015,09,20,13,14,19.30
2015,09,20,13,15,19.30
2015,09,20,13,16,29.00
2015,09,20,13,17,30.60
2015,09,20,13,18,29.00
2015,09,20,13,19,29.00
2015,09,20,13,20,25.70
2015,09,20,13,21,22.50
2015,09,20,13,22,24.20
2015,09,20,13,23,19.30
2015,09,20,13,24,24.20
2015,09,20,13,25,22.50
2015,09,20,13,26,27.40
2015,09,20,13,27,25.70
2015,09,20,13,28,33.80
2015,09,20,13,29,32.20
2015,09,20,13,30,41.80
2015,09,20,13,31,37.00
2015,09,20,13,32,32.20
2015,09,20,13,33,29.00
2015,09,20,13,34,29.00
2015,09,20,13,35,37.00
2015,09,20,13,36,37.00
2015,09,20,13,37,25.70
2015,09,20,13,38,30.60
2015,09,20,13,39,27.40
2015,09,20,13,40,33.80
2015,09,20,13,41,32.20
2015,09,20,13,42,43.50
2015,09,20,13,43,48.30
2015,09,20,13,44,30.60
2015,09,20,13,45,29.00
2015,09,20,13,46,29.00
2015,09,20,13,47,38.60
2015,09,20,13,48,29.00
2015,09,20,13,49,30.60
2015,09,20,13,50,35.40
2015,09,20,13,51,27.40
2015,09,20,13,52,32.20
2015,09,20,13,53,35.40
2015,09,20,13,54,37.00
2015,09,20,13,55,29.00
2015,09,20,13,56,33.80
2015,09,20,13,57,25.70
2015,09,20,13,58,32.20
2015,09,20,13,59,25.70
2015,09,20,14,00,24.20
2015,09,20,14,01,32.20
2015,09,20,14,02,32.20
2015,09,20,14,03,35.40
2015,09,20,14,04,25.70
2015,09,20,14,05,19.30
2015,09,20,14,06,27.40
2015,09,20,14,07,33.80
2015,09,20,14,08,30.60
2015,09,20,14,09,27.40
2015,09,20,14,10,25.70
2015,09,20,14,11,33.80
2015,09,20,14,12,25.70
2015,09,20,14,13,29.00
2015,09,20,14,14,29.00
2015,09,20,14,15,20.90
2015,09,20,14,16,22.50
2015,09,20,14,17,14.50
2015,09,20,14,18,22.50
2015,09,20,14,19,30.60
2015,09,20,14,20,30.60
2015,09,20,14,21,25.70
2015,09,20,14,22,20.90
2015,09,20,14,23,17.70
2015,09,20,14,24,19.30
2015,09,20,14,25,20.90
2015,09,20,14,26,19.30
2015,09,20,14,27,24.20
2015,09,20,14,28,16.10
2015,09,20,14,29,22.50
2015,09,20,14,30,14.50
2015,09,20,14,31,4.80
2015,09,20,14,32,4.80
2015,09,20,14,33,16.10
2015,09,20,14,34,22.50
2015,09,20,14,35,11.30
2015,09,20,14,36,17.70
2015,09,20,14,37,25.70
2015,09,20,14,38,19.30
2015,09,20,14,39,19.30
2015,09,20,14,40,24.20
2015,09,20,14,41,29.00
2015,09,20,14,42,32.20
2015,09,20,14,43,16.10
2015,09,20,14,44,14.50
2015,09,20,14,45,12.90
2015,09,20,14,46,19.30
2015,09,20,14,47,16.10
2015,09,20,14,48,19.30
2015,09,20,14,49,17.70
2015,09,20,14,50,19.30
2015,09,20,14,51,25.70
2015,09,20,14,52,22.50
2015,09,20,14,53,12.90
2015,09,20,14,54,30.60
2015,09,20,14,55,32.20
2015,09,20,14,56,20.90
2015,09,20,14,57,19.30
2015,09,20,14,58,22.50
2015,09,20,14,59,30.60
2015,09,20,15,00,24.20
2015,09,20,15,01,17.70
2015,09,20,15,02,20.90
2015,09,20,15,03,16.10
2015,09,20,15,04,25.70
2015,09,20,15,05,11.30
2015,09,20,15,06,27.40
2015,09,20,15,07,29.00
2015,09,20,15,08,25.70
2015,09,20,15,09,24.20
2015,09,20,15,10,17.70
2015,09,20,15,11,12.90
2015,09,20,15,12,14.50
2015,09,20,15,13,25.70
2015,09,20,15,14,19.30
2015,09,20,15,15,20.90
2015,09,20,15,16,14.50
2015,09,20,15,17,17.70
2015,09,20,15,18,24.20
2015,09,20,15,19,29.00
2015,09,20,15,20,22.50
2015,09,20,15,21,24.20
2015,09,20,15,22,19.30
2015,09,20,15,23,30.60
2015,09,20,15,24,14.50
2015,09,20,15,25,17.70
2015,09,20,15,26,24.20
2015,09,20,15,27,32.20
2015,09,20,15,28,25.70
2015,09,20,15,29,20.90
2015,09,20,15,30,22.50
2015,09,20,15,31,22.50
2015,09,20,15,32,22.50
2015,09,20,15,33,32.20
2015,09,20,15,34,22.50
2015,09,20,15,35,14.50
2015,09,20,15,36,29.00
2015,09,20,15,37,12.90
2015,09,20,15,38,32.20
2015,09,20,15,39,20.90
2015,09,20,15,40,19.30
2015,09,20,15,41,35.40
2015,09,20,15,42,32.20
2015,09,20,15,43,27.40
2015,09,20,15,44,25.70
2015,09,20,15,45,24.20
2015,09,20,15,46,20.90
2015,09,20,15,47,20.90
2015,09,20,15,48,30.60
2015,09,20,15,49,32.20
2015,09,20,15,50,29.00
2015,09,20,15,51,20.90
2015,09,20,15,52,22.50
2015,09,20,15,53,14.50
2015,09,20,15,54,25.70
2015,09,20,15,55,27.40
2015,09,20,15,56,20.90
2015,09,20,15,57,25.70
2015,09,20,15,58,22.50
2015,09,20,15,59,25.70
2015,09,20,16,00,22.50
2015,09,20,16,01,20.90
2015,09,20,16,02,22.50
2015,09,20,16,03,25.70
2015,09,20,16,04,27.40
2015,09,20,16,05,32.20
2015,09,20,16,06,24.20
2015,09,20,16,07,20.90
2015,09,20,16,08,27.40
2015,09,20,16,09,25.70
2015,09,20,16,10,20.90
2015,09,20,16,11,24.20
2015,09,20,16,12,24.20
2015,09,20,16,13,19.30
2015,09,20,16,14,19.30
2015,09,20,16,15,14.50
2015,09,20,16,16,12.90
2015,09,20,16,17,19.30
2015,09,20,16,18,17.70
2015,09,20,16,19,16.10
2015,09,20,16,20,14.50
2015,09,20,16,21,17.70
2015,09,20,16,22,20.90
2015,09,20,16,23,19.30
2015,09,20,16,24,16.10
2015,09,20,16,25,19.30
2015,09,20,16,26,25.70
2015,09,20,16,27,17.70
2015,09,20,16,28,20.90
2015,09,20,16,29,8.10
2015,09,20,16,30,11.30
2015,09,20,16,31,14.50
2015,09,20,16,32,17.70
2015,09,20,16,33,16.10
2015,09,20,16,34,14.50
2015,09,20,16,35,29.00
2015,09,20,16,36,25.70
2015,09,20,16,37,17.70
2015,09,20,16,38,20.90
2015,09,20,16,39,11.30
2015,09,20,16,40,12.90
2015,09,20,16,41,14.50
2015,09,20,16,42,8.10
2015,09,20,16,43,14.50
2015,09,20,16,44,22.50
2015,09,20,16,45,16.10
2015,09,20,16,46,14.50
2015,09,20,16,47,16.10
2015,09,20,16,48,11.30
2015,09,20,16,49,24.20
2015,09,20,16,50,16.10
2015,09,20,16,51,11.30
2015,09,20,16,52,14.50
2015,09,20,16,53,16.10
2015,09,20,16,54,20.90
2015,09,20,16,55,22.50
2015,09,20,16,56,29.00
2015,09,20,16,57,25.70
2015,09,20,16,58,20.90
2015,09,20,16,59,24.20
2015,09,20,17,00,25.70
2015,09,20,17,01,14.50
2015,09,20,17,02,19.30
2015,09,20,17,03,27.40
2015,09,20,17,04,17.70
2015,09,20,17,05,17.70
2015,09,20,17,06,25.70
2015,09,20,17,07,16.10
2015,09,20,17,08,24.20
2015,09,20,17,09,19.30
2015,09,20,17,10,22.50
2015,09,20,17,11,17.70
2015,09,20,17,12,19.30
2015,09,20,17,13,24.20
2015,09,20,17,14,16.10
2015,09,20,17,15,19.30
2015,09,20,17,16,20.90
2015,09,20,17,17,11.30
2015,09,20,17,18,12.90
2015,09,20,17,19,19.30
2015,09,20,17,20,12.90
2015,09,20,17,21,20.90
2015,09,20,17,22,20.90
2015,09,20,17,23,22.50
2015,09,20,17,24,17.70
2015,09,20,17,25,16.10
2015,09,20,17,26,20.90
2015,09,20,17,27,22.50
2015,09,20,17,28,9.60
2015,09,20,17,29,16.10
2015,09,20,17,30,9.60